DateTimeUTC,F1_A11,F1_S11,BsB_S11,BsG_S11,BsR_S11,BbsB_S11,BbsG_S11,BbsR_S11,BaB_A11,BaG_A11,BaR_A11,Tu_S11,T_S11,Uu_S11,U_S11,P_S11,T1_A11
2021-08-10T02:00:00Z,00040200,20000000,,,,,,,-000.21,0000.26,0000.10,18.3,25.1,05.9,03.9,0670.9,31.0
2021-08-10T02:01:00Z,00040200,20000000,,,,,,,0000.36,0000.29,0000.18,18.3,25.1,05.9,03.9,0670.9,31.0
2021-08-10T02:02:00Z,00040200,20000000,,,,,,,0000.31,-000.33,0000.13,18.3,25.1,05.9,03.9,0670.9,30.9
2021-08-10T02:03:00Z,00040200,60000000,,,,,,,0000.42,0000.75,0000.63,18.3,25.1,05.9,03.9,0670.9,30.9
2021-08-10T02:04:00Z,00040200,40000000,0002.80,0002.54,0001.59,-000.21,0000.34,0000.10,0000.51,0000.57,0000.54,18.3,24.9,06.1,04.1,0671.9,30.9
2021-08-10T02:05:00Z,00040200,00000000,0003.10,0002.79,0001.46,0000.40,0000.51,0000.12,0000.41,0000.30,0000.21,18.4,24.8,06.1,04.1,0671.9,30.9
2021-08-10T02:06:00Z,00040200,00000000,0002.88,0002.71,0001.74,-000.03,0000.32,0000.49,0000.60,0000.48,0000.14,18.4,24.8,06.1,04.1,0671.9,30.9
2021-08-10T02:07:00Z,00040200,00000000,0002.92,0002.28,0001.64,0000.21,0000.37,0000.37,0000.63,0000.50,0000.38,18.4,24.8,06.2,04.2,0671.9,30.9
2021-08-10T02:08:00Z,00040200,00000000,0002.81,0002.28,0001.59,0000.16,0000.56,0000.50,0000.32,0000.33,0000.93,18.4,24.8,06.3,04.2,0671.9,31.0
2021-08-10T02:09:00Z,00040200,00000000,0002.63,0002.44,0001.32,0000.21,0000.56,0000.14,0000.45,0000.72,0000.51,18.5,24.9,06.2,04.2,0671.9,31.0
2021-08-10T02:10:00Z,00040200,00000000,0002.84,0002.30,0001.10,-000.38,0000.44,0000.21,0000.64,0000.39,0000.28,18.5,24.9,06.2,04.2,0671.9,31.0
2021-08-10T02:11:00Z,00040200,00000000,0002.80,0002.42,0001.41,0000.39,0000.53,0000.14,0000.31,0000.74,0000.48,18.6,24.9,06.2,04.2,0671.9,31.0
2021-08-10T02:12:00Z,00040200,00000000,0002.89,0002.42,0001.54,0000.30,0000.39,0000.52,0000.93,0000.41,0000.67,18.6,24.9,06.3,04.3,0671.9,31.0
2021-08-10T02:13:00Z,00040200,00000000,0003.57,0002.60,0001.37,0000.24,0000.47,0000.39,0000.17,0000.25,0000.05,18.6,24.9,06.4,04.3,0671.9,31.0
2021-08-10T02:14:00Z,00040200,00000000,0002.20,0002.28,0001.53,0000.18,0000.22,0000.13,0001.01,0000.92,0000.73,18.6,24.9,06.3,04.3,0671.9,31.0
2021-08-10T02:15:00Z,00040200,00000000,0003.33,0002.37,0001.63,0000.19,0000.64,0000.38,0000.22,0000.39,0000.49,18.5,24.9,06.4,04.4,0671.9,31.0
2021-08-10T02:16:00Z,00040200,00000000,0002.98,0002.92,0001.68,0000.35,0000.32,0000.13,0000.56,0000.71,0000.41,18.5,24.8,06.4,04.3,0671.9,30.9
2021-08-10T02:17:00Z,00040200,00000000,0003.54,0003.04,0001.42,0000.04,0000.37,0000.62,0000.36,0000.10,0000.73,18.5,24.8,06.5,04.4,0671.9,30.9
2021-08-10T02:18:00Z,00040200,00000000,0003.24,0002.26,0001.57,0000.09,0000.27,0000.31,0000.63,0000.76,0000.52,18.5,24.8,06.5,04.4,0671.9,31.0
2021-08-10T02:19:00Z,00040200,00000000,0002.96,0002.35,0001.14,0000.68,0000.36,0000.36,0000.35,0000.17,0000.41,18.4,24.8,06.6,04.4,0671.9,30.9
2021-08-10T02:20:00Z,00040200,00000000,0003.45,0002.63,0001.73,-000.19,0000.80,0000.52,0000.64,0000.75,0000.18,18.4,24.8,06.6,04.4,0671.9,30.9
2021-08-10T02:21:00Z,00040200,00000000,0003.07,0002.40,0001.45,-000.12,0000.59,0000.45,0000.08,0000.19,0000.13,18.4,24.7,06.6,04.4,0671.9,30.9
2021-08-10T02:22:00Z,00040200,00000000,0002.70,0002.50,0001.79,0000.72,0000.04,0000.39,0000.49,0000.83,0000.83,18.4,24.7,06.7,04.6,0671.9,30.9
2021-08-10T02:23:00Z,00040200,00000000,0002.92,0002.38,0001.74,0000.07,0000.38,0000.24,0000.69,0000.56,0000.95,18.4,24.7,06.8,04.6,0671.8,31.0
2021-08-10T02:24:00Z,00040200,00000000,0003.95,0002.51,0001.74,0000.19,0000.32,0000.14,0000.67,0000.37,0000.08,18.5,24.8,06.7,04.6,0671.9,31.0
2021-08-10T02:25:00Z,00040200,00000000,0002.84,0002.61,0001.32,0000.33,0000.37,0000.32,0000.48,0000.15,0000.55,18.6,24.8,06.7,04.5,0671.9,31.0
2021-08-10T02:26:00Z,00040200,00000000,0003.04,0002.42,0001.42,0001.09,0000.34,0000.40,0000.28,0000.73,0000.22,18.7,24.9,06.7,04.6,0671.9,31.0
2021-08-10T02:27:00Z,00040200,00000000,0002.88,0002.90,0001.38,0000.21,0000.29,0000.49,0000.36,0000.16,0000.70,18.7,24.9,06.7,04.5,0671.9,31.0
2021-08-10T02:28:00Z,00040200,00000000,0003.26,0002.65,0001.28,0000.50,0000.19,0000.26,0001.02,0001.08,0000.16,18.7,24.9,06.7,04.6,0671.9,31.0
2021-08-10T02:29:00Z,00040200,00000000,0002.34,0002.17,0001.46,0000.20,0000.28,0000.11,0000.13,0000.34,0000.62,18.7,24.9,06.6,04.5,0671.9,31.0
2021-08-10T02:30:00Z,00040200,00000000,0003.09,0002.43,0001.61,0000.49,0000.35,0000.12,0000.63,0000.05,0000.47,18.6,24.9,06.7,04.6,0671.9,31.0
2021-08-10T02:31:00Z,00040200,00000000,0002.83,0002.61,0001.36,-000.06,0000.54,0000.25,0000.48,0000.73,0000.45,18.6,24.8,06.8,04.6,0671.9,30.9
2021-08-10T02:32:00Z,00040200,00000000,0002.97,0002.35,0001.55,0000.14,0000.31,0000.21,0000.27,0000.60,0000.72,18.6,24.8,06.7,04.6,0671.9,31.0
2021-08-10T02:33:00Z,00040200,00000000,0002.86,0002.29,0001.56,0000.73,0000.55,0000.26,0000.43,0000.22,0000.32,18.5,24.8,06.8,04.6,0671.9,31.0
2021-08-10T02:34:00Z,00040200,00000000,0002.67,0002.31,0001.40,0000.32,0000.66,0000.25,0000.56,0000.50,0000.46,18.5,24.8,06.9,04.7,0672.0,30.9
2021-08-10T02:35:00Z,00040200,00000000,0002.61,0002.60,0001.37,0000.68,0000.63,0000.36,0000.19,-000.05,0000.33,18.5,24.8,06.8,04.6,0672.0,30.9
2021-08-10T02:36:00Z,00040200,00000000,0003.19,0002.56,0001.41,-000.27,0000.53,0000.27,0000.32,0000.66,0000.04,18.5,24.8,06.9,04.7,0672.0,30.9
2021-08-10T02:37:00Z,00040200,00000000,0003.48,0002.66,0001.81,-000.35,0000.85,0000.09,0000.58,0000.37,0000.69,18.5,24.7,06.9,04.7,0672.0,30.9
2021-08-10T02:38:00Z,00040200,00000000,0003.48,0002.47,0001.56,0000.40,0000.29,0000.70,0000.23,0000.87,0000.35,18.5,24.8,06.9,04.7,0672.0,31.0
2021-08-10T02:39:00Z,00040200,00000000,0003.44,0002.45,0001.54,0000.29,0000.45,0000.11,0000.66,0000.22,0000.36,18.6,24.8,06.9,04.7,0672.0,31.0
2021-08-10T02:40:00Z,00040200,00000000,0002.98,0002.63,0001.29,0000.05,0000.57,0000.06,0000.27,0000.29,0000.43,18.6,24.9,06.9,04.7,0672.0,31.0
2021-08-10T02:41:00Z,00040200,00000000,0002.01,0002.74,0001.72,0000.24,0000.47,0000.43,0000.32,0000.33,0000.86,18.7,24.9,06.8,04.7,0672.0,31.0
2021-08-10T02:42:00Z,00040200,00000000,0003.43,0002.66,0001.22,0000.54,0000.58,0000.12,0000.65,0000.51,0000.18,18.7,24.9,06.8,04.7,0672.0,31.0
2021-08-10T02:43:00Z,00040200,00000000,0002.78,0002.62,0001.66,0000.95,0000.33,0000.52,0000.40,0000.81,0000.42,18.7,24.9,06.8,04.7,0672.0,31.0
2021-08-10T02:44:00Z,00040200,00000000,0002.81,0002.75,0001.95,0000.56,0000.44,0000.33,0000.46,0000.31,0000.47,18.6,24.9,06.9,04.7,0672.0,31.0
2021-08-10T02:45:00Z,00040200,00000000,0002.88,0002.58,0001.53,0000.58,0000.17,0000.12,0000.31,0000.42,0000.51,18.6,24.9,06.9,04.7,0672.0,31.0
2021-08-10T02:46:00Z,00040200,00000000,0002.88,0002.26,0001.36,0000.45,0000.22,0000.35,0000.69,0000.39,0000.25,18.6,24.8,06.9,04.7,0672.0,31.0
2021-08-10T02:47:00Z,00040200,00000000,0003.37,0002.87,0001.44,0000.19,0000.73,0000.45,0000.32,0000.29,0000.31,18.6,24.8,06.9,04.7,0672.0,31.0
2021-08-10T02:48:00Z,00040200,00000000,0003.45,0002.84,0001.27,0000.46,0000.31,0000.40,0000.24,0000.73,0000.46,18.5,24.8,06.8,04.7,0672.0,30.9
2021-08-10T02:49:00Z,00040200,00000000,0002.91,0002.38,0001.41,0000.34,0000.32,0000.18,0000.70,0000.03,0000.33,18.5,24.8,07.0,04.8,0671.9,31.0
2021-08-10T02:50:00Z,00040200,00000000,0003.64,0002.54,0001.62,0000.70,0000.47,0000.46,0000.08,0000.64,0000.65,18.5,24.8,07.1,04.8,0672.0,30.9
2021-08-10T02:51:00Z,00040200,00000000,0002.97,0002.65,0001.68,0000.21,0000.39,0000.72,0000.69,0000.29,0000.01,18.5,24.7,06.9,04.7,0672.0,30.9
2021-08-10T02:52:00Z,00040200,00000000,0002.45,0002.65,0001.44,0000.26,0000.41,0000.51,0000.17,0000.11,0000.86,18.5,24.7,06.9,04.7,0671.9,30.9
2021-08-10T02:53:00Z,00040200,00000000,0003.40,0002.50,0001.33,0000.46,0000.49,0000.46,0000.77,0000.79,0000.27,18.5,24.8,07.0,04.8,0671.8,31.0
2021-08-10T02:54:00Z,00040200,00000000,0003.13,0002.48,0000.96,0000.63,0000.53,0000.42,0000.14,0000.58,0000.54,18.6,24.8,07.1,04.8,0671.8,31.0
2021-08-10T02:55:00Z,00040200,00000000,0003.54,0002.18,0001.50,0000.50,0000.27,0000.47,0000.11,0000.28,0000.47,18.6,24.9,07.0,04.8,0671.9,31.0
2021-08-10T02:56:00Z,00040200,00000000,0002.63,0002.56,0001.43,0000.79,0000.26,0000.25,0000.26,0000.07,-000.00,18.7,24.9,07.1,04.9,0671.9,31.0
2021-08-10T02:57:00Z,00040200,40000000,,,,,,,0000.64,0000.25,0000.47,18.7,24.9,06.7,04.6,0671.9,31.0
2021-08-10T02:58:00Z,00040200,60000000,,,,,,,-000.12,-000.25,-000.30,18.4,25.0,06.9,04.6,0670.9,31.0
2021-08-10T02:59:00Z,00040200,20000000,,,,,,,-000.14,0000.06,0000.10,18.4,25.1,06.9,04.6,0670.9,31.0
